TIME,DELAY(SENSOR),PRES,OXYGEN,RAWTEMP,T(OPTODE),TCPHASE,FLUOR,BETA(BETA700),BETA(BETA412),BETA(BETA440),CDOM,C(CSC),ED(ED412.40),ED(ED444.00),ED(ED489.70),ED(ED554.30),LU(LU411.80),LU(LU443.40),LU(LU489.60),LU(LU554.10),COMP,TILTX,TILTY,CHECK
1375930631,5807,871.8699951171875000,46.1142997741699200,662.6021728515625000,4.5422649383544920,54.1254310607910160,53,100,83,80,79,15342,2147753709,2147423908,2148011410,2147874962,2147637924,2147053549,2148255213,2147199661,3109,4,13,604
1375934227,5810,945.3800048828125000,48.1422500610351560,668.8936157226562000,4.3347401618957520,53.9175605773925800,53,100,84,78,79,15337,2147758107,2147425225,2148009828,2147874432,2147637842,2147055213,2148256347,2147201810,215,4,13,50768
1375937827,5808,958.2100219726562000,49.0956306457519500,670.7678222656250000,4.2728309631347660,53.8069915771484400,53,97,84,77,79,15339,2147755501,2147424585,2148011163,2147873380,2147641252,2147057819,2148257206,2147200521,170,4,13,44751
1375941427,5809,979.6500244140625000,50.8313102722168000,674.1525878906250000,4.1609249114990230,53.6086616516113300,52,97,88,78,79,15343,2147757110,2147424027,2148012672,2147876873,2147638875,2147055862,2148258413,2147200667,424,4,13,24441
1375945027,5809,983.5900268554688000,50.4876289367675800,674.9185180664062000,4.1355819702148440,53.6623611450195300,52,98,84,79,78,15344,2147757741,2147426203,2148014409,2147874230,2147640329,2147048420,2148260900,2147200704,288,4,13,23788
1375948627,5810,983.0599975585938000,50.3455009460449200,674.3090209960938000,4.1557497978210450,53.6773109436035160,52,98,86,78,79,15343,2147757632,2147427401,2148013302,2147874441,2147643785,2147052242,2148258816,2147199232,612,4,13,42351
1375952227,5809,988.4299926757812000,50.2864913940429700,675.2020263671875000,4.1262001991271970,53.6991882324218750,53,98,84,78,80,15341,2147757860,2147422994,2148013357,2147875163,2147637302,2147051702,2148258880,2147201664,93,4,13,54016
1375955827,5808,991.3599853515625000,50.3551101684570300,675.2471923828125000,4.1247057914733890,53.6860008239746100,52,98,87,79,78,15336,2147756324,2147424713,2148014628,2147874240,2147640438,2147057115,2148254893,2147197613,13,4,13,29764
1375959427,5807,998.5200195312500000,49.9313011169433600,674.9674072265625000,4.1339650154113770,53.7388191223144500,53,98,88,78,78,15335,2147758180,2147424603,2148012827,2147870838,2147641581,2147052260,2148261906,2147195657,3575,3,13,7784
1375963027,5809,1001.3200073242188000,49.9759407043457000,674.1776733398438000,4.1600928306579590,53.7287597656250000,53,99,84,80,78,15335,2147753243,2147424256,2148015414,2147875190,2147641883,2147047798,2148260681,2147201600,441,4,13,24543
1375966627,5809,996.2500000000000000,49.5271301269531250,674.3270263671875000,4.1551551818847660,53.7917289733886700,53,99,83,78,79,15334,2147756041,2147423268,2148014738,2147872173,2147643035,2147049508,2148261430,2147195318,3436,4,13,30943
1375970227,5806,1004.0900268554688000,49.7557601928710940,674.2620849609375000,4.1573009490966800,53.7559394836425800,52,100,91,79,80,15334,2147756214,2147427428,2148012800,2147874450,2147639899,2147050313,2148262080,2147199250,3504,4,13,30875
1375973827,5810,994.4000244140625000,49.5842895507812500,674.8648071289062000,4.1373600959777830,53.7898597717285160,52,99,86,79,80,15334,2147758921,2147423350,2148013403,2147872530,2147639232,2147054308,2148261622,2147201782,3052,4,13,16881
1375977427,5808,995.1500244140625000,49.8771705627441400,676.1052856445312000,4.0963039398193360,53.7659797668457000,53,102,89,77,79,15329,2147757714,2147422089,2148009728,2147872731,2147641956,2147056164,2148257910,2147199140,163,4,13,28116
1375981027,5804,992.4299926757812000,49.8194999694824200,675.9691772460938000,4.1008090972900390,53.7697601318359400,53,99,82,80,78,15334,2147755620,2147424886,2148012196,2147873984,2147643510,2147052562,2148258816,2147201298,122,4,13,31923
1375984627,5809,996.6300048828125000,50.0151405334472660,675.8948974609375000,4.1032700538635250,53.7406883239746100,52,99,82,79,79,15335,2147758930,2147422619,2148012205,2147872009,2147642084,2147050998,2148259693,2147195593,35,4,13,54119
1375988227,5810,994.4299926757812000,50.2798309326171900,675.9246826171875000,4.1022830009460450,53.7057189941406250,52,99,81,79,79,15334,2147754496,2147422061,2148014372,2147873627,2147639716,2147047561,2148261238,2147197120,76,4,13,41215
1375991827,5812,1000.2399902343750000,49.7169685363769500,676.3536987304688000,4.0880808830261230,53.7892494201660160,52,99,86,77,78,15338,2147759332,2147422802,2148013229,2147874642,2147637824,2147049828,2148255094,2147196461,406,4,13,32996
1375995427,5805,999.2700195312500000,49.8217506408691400,675.3875732421875000,4.1200599670410160,53.7643508911132800,52,98,90,77,78,15332,2147758528,2147426294,2148013248,2147874761,2147639780,2147048768,2148257600,2147194377,114,4,13,320
1375999027,5812,1003.1699829101562000,49.5224609375000000,675.2030029296875000,4.1261692047119140,53.7999992370605500,53,99,85,78,79,15329,2147757302,2147426742,2148015195,2147873837,2147639012,2147043940,2148262966,2147198930,33,4,13,35106
1376002627,5810,1004.6500244140625000,49.4411888122558600,675.0695190429688000,4.1305890083312990,53.8144187927246100,51,98,83,79,79,15331,2147758262,2147425664,2148011840,2147874066,2147640603,2147053568,2148261997,2147197376,63,4,13,34167
1376006227,5810,1009.0399780273438000,50.0229911804199200,675.2150878906250000,4.1257691383361820,53.7334518432617200,52,100,83,79,78,15323,2147759168,2147423497,2148013174,2147875666,2147639003,2147056274,2148259830,2147198701,2916,4,13,30330
1376009827,5807,1003.5200195312500000,50.0537681579589840,675.5468139648438000,4.1147899627685550,53.7334518432617200,52,96,88,79,80,15332,2147759058,2147424640,2148009993,2147876050,2147640320,2147051931,2148258642,2147194852,1601,4,13,43545
1376013427,5808,1011.5599975585938000,49.6489791870117200,675.4937133789062000,4.1165499687194820,53.7872085571289060,51,99,83,78,79,15330,2147760393,2147424786,2148011474,2147874953,2147642788,2147056091,2148259885,2147197677,384,4,13,57349
1376017027,5806,1005.9500122070312000,49.4085502624511700,674.4852294921875000,4.1499209403991700,53.8116111755371100,53,97,84,78,78,15330,2147757613,2147425645,2148011611,2147874560,2147639469,2147052306,2148258761,2147197293,3005,3,13,28345
1376020627,5811,999.3800048828125000,49.5551795959472660,675.6273803710938000,4.1121230125427250,53.8036918640136700,52,97,84,78,79,15325,2147756233,2147425728,2148013586,2147872941,2147641444,2147059584,2148257490,2147197312,2564,4,13,14516
1376024227,5809,992.2199707031250000,50.2504806518554700,677.2540283203125000,4.0582709312438965,53.7258911132812500,52,98,85,78,80,15330,2147760896,2147426432,2148007213,2147876708,2147641956,2147051309,2148260571,2147199798,292,4,13,42373
1376027827,5809,995.9199829101562000,51.1112098693847660,678.0270996093750000,4.0326647758483890,53.6232986450195300,52,98,83,77,80,15331,2147755373,2147423451,2148014784,2147873170,2147644516,2147052132,2148259318,2147198985,1,4,13,16417
1376031427,5809,997.5599975585938000,51.1474304199218750,677.6472167968750000,4.0452499389648440,53.6112709045410160,52,97,84,79,79,15330,2147757330,2147427428,2148011940,2147876150,2147642788,2147052315,2148257993,2147199451,3453,4,13,60338
1376035027,5810,997.9600219726562000,50.4427185058593750,677.2384033203125000,4.0587859153747560,53.7014884948730500,52,99,85,79,80,15329,2147757961,2147425097,2148011611,2147874422,2147640640,2147050285,2148260763,2147198838,3497,4,13,25114
1376038627,5809,996.8599853515625000,50.5706214904785160,676.9893798828125000,4.0670337677001950,53.6778488159179700,53,99,87,77,79,15329,2147758162,2147424082,2148014208,2147875108,2147639195,2147052772,2148255497,2147197632,799,4,14,18731
1376042227,5805,999.9099731445312000,50.6287193298339840,677.9826049804688000,4.0341401100158690,53.6877593994140600,52,102,86,77,80,15329,2147757933,2147423378,2148013229,2147873819,2147641088,2147054144,2148259355,2147198290,312,4,13,48589
1376045827,5808,999.9500122070312000,50.8965187072753900,677.9686279296875000,4.0346031188964840,53.6487884521484400,52,99,83,78,80,15325,2147757869,2147425261,2148013668,2147873600,2147643300,2147053220,2148263451,2147196681,631,4,13,55337
1376049427,5811,1001.2299804687500000,49.8072013854980500,675.8897705078125000,4.1034369468688965,53.7685585021972660,52,98,88,79,79,15322,2147756507,2147424137,2148011739,2147874898,2147638573,2147059904,2148258541,2147198253,3233,4,13,15776
1376053027,5807,1006.7399902343750000,50.0874595642089840,675.5833129882812000,4.1135849952697750,53.7254905700683600,52,100,84,79,80,15322,2147760594,2147425746,2148016777,2147875282,2147641737,2147054235,2148262244,2147196379,3587,4,13,34279
1376056627,5809,1007.2399902343750000,49.5737991333007800,674.6857910156250000,4.1432838439941410,53.7872581481933600,52,97,85,78,80,15320,2147759360,2147424822,2148013174,2147875309,2147640036,2147056429,2148259958,2147199442,3566,4,13,61648
1376060227,5807,1007.7100219726562000,49.3133392333984400,674.3862304687500000,4.1531939506530760,53.8196907043457000,53,100,89,79,80,15321,2147757650,2147421604,2148016996,2147877568,2147641728,2147056722,2148260050,2147194934,182,4,13,30089
1376063827,5812,1006.9699707031250000,49.0347404479980500,675.1879882812500000,4.1266651153564450,53.8706588745117200,53,99,85,79,79,15320,2147760365,2147423405,2148015369,2147873161,2147642596,2147054592,2148263122,2147198546,465,4,13,52459
1376067427,5806,1008.2600097656250000,49.6349983215332000,675.8494873046875000,4.1047730445861820,53.7971191406250000,54,98,87,78,79,15309,2147756452,2147421357,2148011190,2147874569,2147642578,2147049179,2148261211,2147198930,3596,3,13,52756
1376071027,5807,1005.0399780273438000,49.2775001525878900,675.0153808593750000,4.1323781013488770,53.8329315185546900,51,99,87,80,79,15319,2147759570,2147422811,2148013458,2147874761,2147644900,2147050413,2148262985,2147195465,502,4,13,21240
1376074556,5808,1004.3499755859375000,49.0403213500976560,675.6027221679688000,4.1129398345947270,53.8759498596191400,52,100,86,77,79,15331,2147757101,2147426377,2148011373,2147877129,2147642240,2147051026,2148258724,2147195044,431,4,13,44745
